SCP
0 0 0 0 0 0 0 0 0 0 0 0 0 0 0 0 0 0 0 0 0 0 0 0 0 0 0 0 0 0 0 0 0 0 0 0 0 0
0 0 0 0 0 0 0 0 0 0 0 0 0 0 0 0 0 0 0 0 0 0 0 0 0 0 0 0 0 0 0 0 0 0 0 0 0 0
0 0 0 0 0 0 0 0 0 0 0 0 0 0 0 0 0 0 0 0 0 0 0 0 0 0 0 0 0 0 0 0 0 0 0 0 0 0
0 0 0 0 0 0 0 0 0 0 0 0 0 0 0 0 0 0 0 0 0 0 0 0 0 0 0 0 0 0 0 0 0 0 0 0 0 0
0 0 0 0 0 0 0 0 0 0 0 0 0 0 0 0 0 0 0 0 0 0 0 0 0 0 0 0 0 0 0 0 0 0 0 0 0 0
0 0 0 0 0 0 0 0 0 0 0 0 0 0 0 0 0 0 0 0 0 0 0 0 0 0 0 0 0 0 0 0 0 0 0 0 0 0
0 0 0 0 0 0 0 0 0 0 0 0 0 0 0 0 0 0 0 0 0 0 0 0 0 0 0 0 0 0 0 0 0 0 0 0 0 0
0 0 0 0 0 0 0 0 0 0 0 0 0 0 0 0 0 0 0 0 0 0 0 0 0 0 0 0 0 0 0 0 0 0 0 0 0 0
0 0 0 0 0 0 0 0 0 0 0 0 0 0 0 0 0 0 0 0 0 0 0 0 0 0 0 0 0 0 0 0 0 0 0 0 0 0
0 0 0 0 0 0 0 0 0 0 0 0 0 0 0 0 0 0 0 0 0 0 0 0 0 0 0 0 0 0 0 0 0 0 0 0 0 0
0 0 0 0 0 0 0 0 0 0 0 0 0 0 0 0 0 0 0 0 0 0 0 0 0 0 0 0 0 0 0 0 0 0 0 0 0 0
0 0 0 0 0 0 0 0 0 0 0 0 0 0 0 0 0 0 0 0 0 0 0 0 0 0 0 0 0 0 0 0 0 0 0 0 0 0
0 0 0 0 0 0 0 0 0 0 0 0 0 0 0 0 0 0 0 0 0 0 0 0 0 0 0 0 0 0 0 0 0 0 0 0 0 0
0 0 0 0 0 0 0 0 0 0 0 0 0 0 0 0 0 0 0 0 0 0 0 0 0 0 0 0 0 0 0 0 0 0 0 0 0 0
0 0 0 0 0 0 0 0 0 0 0 0 0 0 0 0 0 0 0 0 0 0 0 0 0 0 0 0 0 0 0 0 0 0 0 0 0 0
0 0 0 0 0 0 0 0 0 0 0 0 0 0 0 0 0 0 0 0 0 0 0 0 0 0 0 0 0 0 0 0 0 0 0 0 0 0
0 0 0 0 0 0 0 0 0 0 0 0 0 0 0 0 0 0 0 0 0 0 0 0 0 0 0 0 0 0 0 0 0 0 0 0 0 0
0 0 0 0 0 0 0 0 0 0 0 0 0 0 0 0 0 0 0 0 0 0 0 0 0 0 0 0 0 0 0 0 0 0 0 0 0 0
0 0 0 0 0 0 0 0 0 0 0 0 0 0 0 0 0 0 0 0 0 0 0 0 0 0 0 0 0 0 0 0 0 0 0 0 0 0
0 0 0 0 0 0 0 0 0 0 0 0 0 0 0 0 0 0 0 0 0 0 0 0 0 0 0 0 0 0 0 0 0 0 0 0 0 0
0 0 0 0 0 0 0 0 0 0 0 0 0 0 0 0 0 0 0 0 0 0 0 0 0 0 0 0 0 0 0 0 0 0 0 0 0 0
0 0 0 0 0 0 0 0 0 0 0 0 0 0 0 0 0 0 0 0 0 0 0 0 0 0 0 0 0 0 0 0 0 0 0 0 0 0
0 0 0 0 0 0 0 0 0 0 0 0 0 0 0 0 0 0 0 0 0 0 0 0 0 0 0 0 0 0 0 0 0 0 0 0 0 0
Wind_Speed
2 2 2 2 2 2 2 3 4 2 3 3 3 3 4 5 6 3 2 7 4 3 2 1 3 4 6 7 8 8 8 7 8 10 12 13 14 14
1 1 1 1 2 3 3 3 3 4 4 3 2 2 3 5 8 4 3 5 2 3 3 2 2 4 6 7 8 9 9 9 9 10 12 13 15 14
2 2 2 2 2 2 2 3 3 4 4 4 3 3 4 5 5 4 3 2 1 0 2 2 3 6 7 7 8 9 10 11 11 11 12 13 14 15
3 3 3 2 2 2 1 2 3 4 4 5 4 3 3 4 5 4 3 1 1 1 1 3 6 8 8 8 8 8 9 10 10 10 11 12 14 15
6 7 6 6 6 4 4 3 2 2 2 4 4 3 1 2 4 4 4 3 3 4 5 6 7 9 9 9 9 9 9 8 8 8 9 11 12 14
7 7 7 6 5 5 5 5 4 3 2 1 2 1 1 2 4 4 3 3 4 5 7 8 8 8 9 9 9 10 9 9 8 8 8 9 10 13
6 6 6 7 9 7 5 5 5 4 3 2 2 2 2 3 3 2 2 2 3 2 3 4 4 4 6 9 10 11 10 9 8 9 10 10 10 12
4 3 3 4 7 9 8 7 6 4 4 3 3 3 3 4 3 3 2 2 2 2 3 4 4 5 5 5 10 13 11 9 10 11 12 13 13 15
5 5 5 5 7 5 6 5 3 3 4 3 3 4 3 4 3 3 3 2 2 3 3 5 4 5 5 7 12 13 13 12 12 13 13 14 15 17
5 6 6 6 5 6 5 4 3 2 3 4 4 4 4 3 3 2 3 3 4 4 3 4 3 4 6 4 12 14 13 14 15 14 14 15 16 17
4 6 5 6 9 9 7 5 4 5 6 7 5 4 4 4 1 1 2 2 2 3 3 3 3 4 3 4 7 12 17 19 19 19 18 17 17 16
3 4 7 7 9 9 6 5 5 5 6 7 7 7 4 5 6 3 2 1 2 3 3 4 4 4 5 4 4 8 11 17 19 19 19 20 20 11
4 3 4 8 8 8 6 4 5 4 4 4 3 3 4 5 6 6 5 3 1 2 3 4 3 3 3 5 5 5 6 7 9 12 16 20 21 16
3 3 4 7 8 7 3 5 7 5 2 3 3 3 4 4 4 4 4 3 2 4 5 3 3 4 5 7 7 5 6 7 9 10 9 15 17 19
0 2 3 5 6 5 4 5 4 3 3 3 3 3 3 3 3 3 3 3 4 5 6 5 5 6 6 7 8 8 8 7 7 7 7 8 9 9
2 1 3 4 2 4 3 3 3 2 2 1 1 2 2 3 2 2 3 3 3 3 4 6 6 6 5 7 8 9 7 7 6 8 9 10 9 8
2 1 2 1 1 2 2 3 3 3 3 3 3 2 3 3 3 3 3 3 3 4 4 4 4 5 7 7 8 9 9 8 8 9 9 10 9 8
3 2 2 1 1 2 2 2 2 2 2 2 3 3 3 3 3 3 3 3 4 4 5 4 4 5 5 6 9 9 8 8 8 8 7 9 10 8
2 2 2 1 1 1 1 1 1 1 1 1 2 3 3 3 4 4 4 4 4 5 5 4 4 6 9 9 6 7 7 6 7 8 8 8 10 10
2 2 2 1 1 1 1 1 1 1 1 2 2 3 3 4 4 5 4 5 6 6 6 5 4 5 8 10 10 10 15 12 9 10 10 9 9 13
3 2 2 1 1 1 1 1 1 2 2 2 3 4 4 4 5 5 5 10 9 7 8 8 7 13 10 8 9 8 10 15 15 11 9 10 11 10
3 3 2 2 1 1 2 2 2 3 3 3 4 4 4 4 5 6 6 7 7 7 8 9 8 8 8 10 11 12 13 13 13 20 22 21 12 8
4 4 3 3 2 2 2 3 4 3 4 4 4 4 4 4 5 5 6 7 8 9 9 10 8 7 9 9 11 12 15 15 11 10 11 17 23 25
Wind_Direction
216 219 213 216 212 211 198 174 171 206 257 256 241 210 159 137 152 133 109 146 174 207 230 286 316 318 310 298 289 288 291 293 289 285 280 275 273 276
303 285 273 244 226 215 206 207 190 184 213 234 241 230 178 152 155 151 151 167 237 249 224 241 306 313 307 298 290 283 283 285 289 291 288 281 274 268
318 284 262 261 259 245 219 210 213 196 209 233 238 238 188 162 149 139 117 104 349 6 183 230 292 297 294 289 286 283 281 282 284 289 293 293 287 280
9 26 12 9 359 322 285 241 228 216 202 217 232 237 204 164 135 120 101 69 6 305 217 269 288 291 291 286 280 278 277 276 278 285 291 294 293 287
57 59 45 43 33 16 11 357 310 267 223 207 220 216 174 117 104 88 68 38 8 360 343 327 311 301 293 291 285 280 276 272 273 278 288 294 295 292
64 62 54 47 36 27 37 17 3 2 358 212 198 168 123 94 97 89 63 34 5 344 328 314 312 325 327 324 312 293 279 272 273 281 288 292 296 297
67 64 61 51 47 53 59 38 23 22 24 36 56 72 75 68 78 84 80 33 336 309 327 329 339 336 331 323 314 301 288 272 272 280 285 286 291 297
65 56 72 66 43 42 48 49 45 42 33 33 33 46 60 63 62 64 69 51 322 335 3 319 318 305 296 289 289 293 295 283 276 278 282 283 284 288
55 36 23 35 56 31 15 19 38 70 74 62 32 25 48 46 48 40 33 20 281 300 320 286 278 281 284 299 313 320 322 312 297 288 286 285 283 284
63 51 23 12 42 29 359 349 352 37 77 64 59 37 41 47 47 20 340 317 294 285 285 278 289 288 301 309 316 320 339 349 342 328 313 300 287 281
82 83 49 32 30 28 10 0 20 25 44 39 24 356 337 323 307 26 341 333 316 310 324 307 313 319 309 303 318 343 350 341 335 331 327 321 309 295
53 103 79 50 25 23 12 10 39 28 9 2 0 354 5 19 40 66 38 20 354 309 355 4 346 354 324 312 343 344 335 325 323 325 325 324 322 318
16 64 69 48 17 5 12 23 21 14 348 340 345 1 29 44 44 40 38 39 11 293 328 1 339 337 301 307 318 311 307 317 323 318 314 312 312 313
20 61 45 25 360 349 4 357 357 2 1 11 20 29 38 33 19 3 347 331 287 270 279 286 271 283 290 292 292 298 309 306 304 301 300 303 306 308
40 50 17 2 355 347 348 348 2 29 40 29 21 28 28 6 345 333 333 330 313 298 296 282 266 271 272 280 287 294 300 292 280 289 304 312 308 309
356 359 331 320 293 283 323 14 41 34 41 22 2 11 359 343 334 337 332 323 310 296 297 305 307 300 288 283 286 288 285 285 297 297 295 293 291 288
10 338 305 316 21 25 28 36 37 24 20 23 25 1 339 332 328 328 316 309 298 298 305 300 293 292 287 284 281 275 277 279 280 285 286 287 285 282
341 317 313 357 41 43 35 28 20 8 19 19 1 339 325 318 311 307 302 299 294 292 292 296 304 308 295 273 254 264 268 273 279 285 292 296 296 292
313 312 338 15 25 26 7 323 308 333 4 326 302 302 304 305 305 303 299 297 292 289 287 290 298 304 302 298 286 289 301 302 303 301 296 292 293 296
299 279 266 258 244 233 241 264 294 319 311 298 296 296 297 296 294 293 294 293 296 296 293 283 274 279 285 291 292 290 285 279 279 281 283 282 279 285
314 310 300 285 264 236 239 246 246 253 262 268 269 271 272 273 278 280 286 293 296 294 291 288 279 293 292 288 282 277 276 275 273 271 275 279 283 284
320 316 311 302 288 259 251 247 245 246 254 254 255 256 258 262 270 275 277 282 282 280 281 284 283 283 277 279 281 285 286 284 277 275 271 265 266 267
336 328 323 317 308 290 271 261 255 249 246 249 251 251 251 254 258 264 269 274 279 281 284 286 285 275 275 275 279 281 281 285 288 282 271 263 262 261